Hourly Data Report for October 19, 2014

All times are specified in Local Standard Time (LST). Add 1 hour to adjust for Daylight Saving Time where and when it is observed.

TORONTO INTL A
ONTARIO

43°40'36.000" N
79°37'50.000" W
173.40 m
6158731
71624
YYZ

Download Data

Hourly Data (October 2014)
Hourly Data Report for October 19, 2014
Temp Definition
°C
Dew Point Temp Definition
°C
Rel Hum Definition
%
Wind Dir Definition
10's deg

Wind Spd Definition
km/h
Visibility Definition
km
Stn Press Definition
kPa
Hmdx Definition


Wind Chill Definition


Weather Definition


TIME
00:00 Legend Double Dagger 4.3 -0.7 70 33 17 24.1 99.52     LegendNANA
01:00 Legend Double Dagger 4.5 -1.1 67 33 21 24.1 99.56     Cloudy
02:00 Legend Double Dagger 4.0 -2.0 65 34 16 24.1 99.61     LegendNANA
03:00 Legend Double Dagger 4.0 -1.8 66 33 23 24.1 99.65     LegendNANA
04:00 Legend Double Dagger 3.5 -1.9 68 34 20 24.1 99.69     Mostly Cloudy
05:00 Legend Double Dagger 3.4 -1.9 68 34 21 24.1 99.75     LegendNANA
06:00 Legend Double Dagger 3.1 -2.6 66 33 17 24.1 99.81     LegendNANA
07:00 Legend Double Dagger 3.0 -2.5 67 34 13 24.1 99.85     Mostly Cloudy
08:00 Legend Double Dagger 3.6 -1.6 69 36 14 24.1 99.90     LegendNANA
09:00 Legend Double Dagger 4.0 -1.0 70 2 9 24.1 99.94     LegendNANA
10:00 Legend Double Dagger 5.2 -0.6 66 1 13 24.1 99.92     Mostly Cloudy
11:00 Legend Double Dagger 5.9 -1.5 59 31 12 24.1 99.91     LegendNANA
12:00 Legend Double Dagger 6.7 -1.7 55 27 17 24.1 99.88     LegendNANA
13:00 Legend Double Dagger 7.8 -2.0 50 31 21 24.1 99.81     Mostly Cloudy
14:00 Legend Double Dagger 9.0 -0.8 50 28 18 24.1 99.76     LegendNANA
15:00 Legend Double Dagger 9.2 -1.2 48 28 18 24.1 99.71     LegendNANA
16:00 Legend Double Dagger 8.7 -0.9 51 26 17 24.1 99.68     Cloudy
17:00 Legend Double Dagger 8.3 -0.2 55 26 14 24.1 99.65     LegendNANA
18:00 Legend Double Dagger 6.9 0.1 62 25 10 24.1 99.63     LegendNANA
19:00 Legend Double Dagger 6.3 0.4 66 26 14 24.1 99.64     Mostly Cloudy
20:00 Legend Double Dagger 6.6 0.5 65 23 6 24.1 99.58     LegendNANA
21:00 Legend Double Dagger 5.1 1.2 76 24 10 24.1 99.56     LegendNANA
22:00 Legend Double Dagger 4.9 1.0 76 25 8 24.1 99.51     Cloudy
23:00 Legend Double Dagger 6.3 1.6 72 22 9 24.1 99.50     LegendNANA

Notes on Data Quality.

Legend

  • E = Estimated
  • M = Missing
  • NA = Not Available
  • ‡ = Partner data that is not subject to review by the National Climate Archives
Date modified: